User: anonymous   Login
Location: Caltech
(34.1382°N, 118.1253°W)
Time: 02:32:07
(UTC-07:00)
Language:

Spot 4 Rocket - Orbit

View from above orbital plane
View from above orbital plane
View from above satellite
View from above satellite

Ground track
Ground track

The orbit data is extracted from the following two-line orbital elements,

1 25261U 98017B   14296.79512123  .00000773  00000-0  29792-3 0  7091
2 25261 098.4243 247.0150 0004567 083.5809 332.2473 14.33031497866438
Epoch (UTC): 23 October 2014 19:04:58
Eccentricity: 0.0004567
inclination: 98.4243°
perigee height: 778 km
apogee height: 785 km
right ascension of ascending node: 247.0150°
argument of perigee: 83.5809°
revolutions per day: 14.33031497
mean anomaly at epoch: 332.2473°
orbit number at epoch: 86643

The dashed part of the orbit path shows where the satellite is in the earth's shadow,  

DLR